DECAYED

TIANHUI 1-03 DEB, 41024 (Decayed)

Orbit data source: Space-Track

TIANHUI 1-03 DEB, 41024 was space debris in SSO originally from a launch on Mon, 26 Oct 2015 UTC launched from the Jiuquan Satellite Launch Center, China (JSC). Debris objects in space refer to the collection of defunct objects orbiting the Earth. Examples of debris include non-operational satellites, rocket bodies, and fragments generated from explosions, collisions, or faulty payload assembly.

Not visible in the next 10 days
TIANHUI 1-03 DEB details
Identifier
41024, 2015-061C
Orbit
Decayed
Last TLE update4 months ago
Origin
Flag of CNCASC (CN / PRC)
ManufacturerUnknown
MissionDecayed spacecraft
Bus & MotorUnknown
MassUnknown
Launch date (UTC)
2015-10-26 (9 years ago)
Launch vehicleUnknown
Launch site
Jiuquan Satellite Launch Center, China (JSC)
Object type
Payload
Rocket body
Debris
Shape & HBRUnknown
Radar Cross SectionSmall (<0.1 m²)

Expand to show TLE details & history

TLE from 4 months ago
0 TIANHUI 1-03 DEB
1 41024U 15061C   24252.43804513  .02694476  51625-2  93504-2 0  9999
2 41024  97.2796 143.7149 0015917 264.4519  95.4939 15.90507132478636
Epoch: 2024-09-08T10:30Z
Definitive object data (Epoch: 2024-09-08T10:30:47.099Z)
Latitude-0.00002°
Longitude-1.96322°
Altitude305.087 km
Speed7.724 km/s
True Right ascension09h 34m 51s
True Declination0° 00' 00"
Sunlit
Object was in daylight at TLE epoch
Visualization observer readout
Observer readout values are unavailable because the object's trajectory could not be propagated. This is usually caused when the trajectory data is faulty or the object's orbit has decayed.
Visualization observer readout
Observer readout values are unavailable because the object's trajectory could not be propagated. This is usually caused when the trajectory data is faulty or the object's orbit has decayed.
Orbital elements
Apogee altitude308.356 km
Perigee altitude287.104 km
Semi-major axis6,675.867 km
Eccentricity0.0015917
Inclination97.2796°
RAAN143.7149°
Arg. of periapsis264.4519°
True anomaly95.67542°
Mean anomaly95.4939°
Eccentric anomaly95.58466°
Mean motion3.97907 °/min
BSTAR0.0093504
Orbital period90.47 mins
Loading maneuver chart data...
Loading historical data...
Loading historical data...
Loading historical data...
Loading historical data...
Loading historical data...
Loading historical data...
Loading historical data...

TIANHUI 1-03 DEB Visibility forecast

Observer location: undefined°, undefined

This satellite is decayed
Span
Click to sort rows by Start time (UTC) header in descending order
Start Az.
Max El. time (UTC)
Max El. Az.
Max El.
End time (UTC)
End Az.
|